FW7994 Weather Reports


time (UTC)temp
F
wind
direction
speed
knots
gust
knots
rain 1hr
in
rain 24hr
in
rain mn
in
humidity
%
barometer
mb
20260509013016 61 0.0 0.0 0.00 0.11 0.04 32 1012.7
20260509012021 61 0.0 0.0 0.00 0.11 0.04 35 1012.6
20260509011016 61 0.0 0.0 0.00 0.12 0.04 40 1012.5
20260509010016 62 0.0 0.0 0.00 0.13 0.04 43 1012.3
20260509005016 62 0.0 0.0 0.00 0.14 0.04 47 1012.3
20260509004056 62 0.0 0.0 0.00 0.15 0.04 51 1012.3
20260509003016 63 0.0 0.0 0.00 0.16 0.04 55 1012.4
20260509002016 63 0.0 0.0 0.00 0.17 0.04 59 1012.6
20260509001016 63 0.0 0.0 0.00 0.18 0.04 62 1012.3
20260509000016 64 0.0 0.0 0.00 0.18 0.04 64 1012.2
20260508235016 64 0.0 0.0 0.00 0.19 0.04 66 1012.0
20260508234016 65 0.0 0.0 0.00 0.20 0.04 66 1011.9
20260508233016 66 0.0 0.0 0.00 0.20 0.04 63 1011.9
20260508232036 66 0.0 0.0 0.00 0.21 0.04 66 1012.1
20260508231036 66 0.0 0.0 0.00 0.22 0.04 65 1012.1
20260508230016 67 0.0 0.0 0.00 0.23 0.04 66 1012.1
20260508225016 67 0.0 0.0 0.00 0.24 0.04 65 1012.2
20260508224016 68 0.0 0.0 0.00 0.26 0.04 64 1012.2
20260508223016 68 0.0 0.0 0.00 0.27 0.04 66 1012.3
20260508222016 68 0.0 0.0 0.00 0.28 0.04 66 1012.2
20260508221016 69 0.0 0.0 0.00 0.30 0.04 66 1012.1
20260508220016 69 0.0 0.0 0.00 0.31 0.04 67 1012.3
20260508215016 69 0.0 0.0 0.00 0.33 0.04 67 1012.2
20260508214036 69 0.0 0.0 0.00 0.35 0.04 67 1012.2
20260508213016 70 0.0 0.0 0.00 0.37 0.04 66 1012.4
20260508212016 70 0.0 0.0 0.00 0.39 0.04 62 1012.4
20260508211036 71 0.0 0.0 0.00 0.41 0.04 60 1012.4
20260508210016 71 0.0 0.9 0.00 0.44 0.04 61 1012.3
20260508205036 71 0.0 0.0 0.00 0.46 0.04 55 1012.3
20260508204016 72 0.0 0.0 0.00 0.49 0.04 63 1012.4
20260508203016 72 0.0 1.7 0.00 0.51 0.04 53 1012.6
20260508202016 72 0.0 0.9 0.00 0.53 0.04 55 1012.8
20260508201036 72 248 0.9 2.6 0.00 0.56 0.04 54 1012.9
20260508200015 72 0.0 0.9 0.00 0.58 0.04 56 1012.8
20260508195017 72 0.0 1.7 0.00 0.61 0.04 53 1012.9
20260508194016 72 0.0 1.7 0.00 0.63 0.04 58 1013.0
20260508193016 72 0.0 0.9 0.00 0.66 0.04 60 1013.2
20260508192016 73 225 0.9 4.3 0.00 0.69 0.04 59 1013.4
20260508191036 73 0.0 0.9 0.00 0.71 0.04 50 1013.6
20260508190036 74 0.0 1.7 0.00 0.74 0.04 51 1013.7
20260508185056 74 0.0 1.7 0.00 0.76 0.04 50 1013.8
20260508184016 73 270 0.9 4.3 0.00 0.79 0.04 48 1013.9
20260508183036 73 225 0.9 3.5 0.00 0.82 0.04 52 1014.3
20260508182015 73 0.0 1.7 0.00 0.86 0.04 55 1014.2
20260508181016 72 0.0 3.5 0.00 0.89 0.04 52 1014.2
20260508180015 72 293 0.9 4.3 0.00 0.93 0.04 49 1014.4
20260508175015 72 0.0 0.9 0.00 0.96 0.04 53 1014.7
20260508174015 72 0.0 0.9 0.00 0.99 0.04 58 1014.7
20260508173015 71 338 1.7 5.2 0.00 1.02 0.04 52 1014.6
20260508172016 71 0.0 0.9 0.00 1.04 0.04 60 1014.8
20260508171015 71 0.0 0.9 0.00 1.07 0.04 56 1015.0
20260508170015 71 225 1.7 7.0 0.00 1.09 0.04 53 1015.2
20260508165035 71 0.0 0.9 0.00 1.11 0.04 56 1015.4
20260508164015 70 248 0.9 2.6 0.00 1.14 0.04 55 1015.4
20260508163015 70 0.0 1.7 0.00 1.16 0.04 54 1015.7
20260508162015 69 0.0 1.7 0.00 1.18 0.04 55 1015.8
20260508161015 69 0.0 3.5 0.00 1.21 0.04 52 1015.8
20260508160015 69 0.0 2.6 0.00 1.23 0.04 59 1015.9
20260508155015 68 0.0 1.7 0.00 1.26 0.04 57 1016.1
20260508154015 68 0.0 2.6 0.00 1.29 0.04 59 1016.3
20260508153035 68 0.0 0.0 0.00 1.32 0.04 62 1016.5
20260508152015 67 0.0 0.9 0.00 1.35 0.04 62 1016.4
20260508151015 66 0.0 0.0 0.00 1.37 0.04 63 1016.4
20260508150015 65 0.0 1.7 0.00 1.40 0.04 67 1016.2
20260508145015 65 0.0 2.6 0.00 1.43 0.04 66 1016.1
20260508144015 64 0.0 1.7 0.00 1.46 0.04 67 1016.1
20260508143015 63 203 0.9 3.5 0.00 1.50 0.04 67 1016.2
20260508142016 62 0.0 0.9 0.00 1.53 0.04 62 1016.2
20260508141015 61 0.0 1.7 0.00 1.56 0.04 52 1016.4
20260508140015 61 0.0 0.9 0.00 1.59 0.04 36 1016.3
20260508135015 60 0.0 0.0 0.00 1.62 0.04 32 1016.3
20260508134015 59 0.0 0.0 0.00 1.65 0.04 24 1016.4
20260508133015 58 0.0 0.9 0.00 1.69 0.04 21 1016.3
20260508132015 57 0.0 0.0 0.00 1.72 0.04 18 1016.2
20260508131015 56 0.0 0.0 0.00 1.75 0.04 16 1016.0
20260508130017 56 0.0 0.9 0.00 1.78 0.04 14 1015.9
20260508125037 56 0.0 0.0 0.00 1.82 0.04 12 1015.7
20260508124017 55 0.0 0.0 0.00 1.85 0.04 13 1015.4
20260508123037 54 0.0 0.0 0.00 1.88 0.04 14 1015.3
20260508122016 54 0.0 0.0 0.00 1.92 0.04 14 1015.3
20260508121016 53 0.0 0.0 0.00 1.95 0.04 15 1015.2
20260508120017 53 0.0 0.0 0.00 1.97 0.04 16 1015.1
20260508115017 52 0.0 0.0 0.00 2.00 0.04 17 1015.0
20260508114017 52 0.0 0.0 0.00 2.03 0.04 17 1014.9
20260508113016 52 0.0 0.0 0.00 2.05 0.04 18 1014.7
20260508112017 51 0.0 0.0 0.00 2.07 0.04 18 1014.3
20260508111016 51 0.0 0.0 0.00 2.08 0.04 19 1014.0
20260508110017 52 0.0 0.0 0.00 2.09 0.04 18 1013.8
20260508105016 52 0.0 0.0 0.00 2.09 0.04 18 1013.8
20260508104016 52 0.0 0.0 0.00 2.10 0.04 18 1013.5
20260508103036 52 0.0 0.0 0.00 2.11 0.04 18 1013.4
20260508102036 52 0.0 0.0 0.00 2.11 0.04 18 1013.3
20260508101016 52 0.0 0.0 0.01 2.12 0.04 18 1013.1
20260508100037 52 0.0 0.0 0.01 2.13 0.04 19 1012.8
20260508095016 52 0.0 0.0 0.01 2.15 0.04 20 1012.8
20260508094036 52 0.0 0.0 0.01 2.16 0.04 20 1012.8
20260508093018 52 0.0 0.0 0.01 2.17 0.04 20 1012.8
20260508092021 52 0.0 0.0 0.01 2.19 0.04 21 1012.7
20260508091017 52 0.0 0.0 0.00 2.19 0.03 22 1012.5
20260508090016 52 0.0 0.0 0.00 2.21 0.03 22 1012.5
20260508085017 52 0.0 0.0 0.00 2.23 0.03 23 1012.3
20260508084016 52 0.0 0.0 0.00 2.25 0.03 23 1012.4
20260508083016 52 0.0 0.0 0.00 2.27 0.03 24 1012.4
20260508082036 52 0.0 0.0 0.00 2.29 0.03 25 1012.4
20260508081016 53 0.0 0.0 0.00 2.31 0.03 26 1012.4
20260508080016 53 0.0 0.0 0.00 2.33 0.03 25 1012.2
20260508075016 53 0.0 0.0 0.01 2.35 0.03 26 1012.2
20260508074016 53 0.0 0.0 0.01 2.38 0.03 26 1012.4
20260508073036 53 0.0 0.0 0.01 2.41 0.03 27 1012.2
20260508072016 54 0.0 0.0 0.01 2.44 0.03 27 1012.1
20260508071016 54 0.0 0.0 0.01 2.47 0.03 27 1012.1
20260508070036 54 0.0 0.0 0.01 2.49 0.03 27 1012.0
20260508065016 54 0.0 0.0 0.00 2.50 0.02 27 1012.0
20260508063036 54 0.0 0.0 0.01 2.54 0.02 31 1011.8
20260508062016 54 0.0 0.0 0.01 2.56 0.02 32 1011.7
20260508061016 55 0.0 0.0 0.01 2.59 0.02 33 1011.7
20260508060016 55 0.0 0.0 0.01 2.61 0.02 35 1011.8
20260508055036 55 0.0 0.0 0.01 2.63 0.02 37 1012.1
20260508054036 56 0.0 0.0 0.01 2.66 0.02 35 1012.2
20260508053016 56 0.0 0.0 0.01 2.68 0.01 33 1012.0
20260508052016 57 0.0 0.0 0.01 2.71 0.01 34 1012.1
20260508051036 57 0.0 0.0 0.01 2.74 0.01 33 1012.1
20260508050016 57 0.0 0.0 0.01 2.77 0.01 36 1012.0
20260508045036 57 0.0 0.0 0.02 2.80 0.01 34 1011.8
20260508044016 57 0.0 0.0 0.02 2.83 0.01 35 1011.8
20260508043016 57 0.0 0.0 0.01 2.85 0.00 39 1011.7
20260508042016 58 0.0 0.0 0.02 2.89 0.00 38 1011.7
20260508041056 58 0.0 0.0 0.02 2.92 0.00 40 1011.6
20260508040016 58 0.0 0.0 0.02 2.96 2.96 42 1011.4
20260508035015 59 0.0 0.0 0.02 2.99 2.95 43 1011.5
20260508034015 59 0.0 0.0 0.02 3.03 2.95 44 1011.5
20260508033015 60 0.0 0.0 0.02 3.08 2.95 43 1011.4
20260508032035 60 0.0 0.0 0.02 3.11 2.94 44 1011.4
20260508031037 61 0.0 0.0 0.02 3.16 2.94 40 1011.3
20260508030017 61 0.0 0.0 0.03 3.21 2.94 36 1011.2
20260508025057 62 0.0 0.0 0.02 3.24 2.93 37 1011.1
20260508024017 62 0.0 0.0 0.03 3.28 2.93 32 1010.9
20260508023017 63 0.0 0.0 0.04 3.33 2.93 26 1010.9
20260508022017 64 0.0 0.0 0.03 3.36 2.92 24 1010.5
20260508021017 64 0.0 0.0 0.04 3.41 2.92 28 1010.5
20260508020017 65 0.0 0.0 0.04 3.45 2.91 32 1010.2
20260508015017 65 0.0 0.0 0.05 3.51 2.91 33 1010.0
20260508014057 66 0.0 0.0 0.05 3.55 2.90 34 1009.7